This is the latest recevied weather packets stored in our database for station/object AC8JV. If no packets are shown the sender has not sent any weather packets the latest 10 day(s).
| Time | Temp. | Humidity | Pressure | Rain* | Wind** | Luminosity | Snow |
|---|---|---|---|---|---|---|---|
| 1777585817 | 9.44° C | 46% | 1016.2 hPa | 0 mm | - | - | - |
| 1777585206 | 10° C | 46% | 1016.2 hPa | 0 mm | - | - | - |
| 1777584609 | 10° C | 49% | 1016.1 hPa | 0 mm | - | - | - |
| 1777584028 | 10° C | 48% | 1016.3 hPa | 0 mm | - | - | - |
| 1777583401 | 10° C | 44% | 1016.3 hPa | 0 mm | - | - | - |
| 1777582833 | 10.56° C | 45% | 1016.4 hPa | 0 mm | - | - | - |
| 1777582200 | 11.11° C | 48% | 1016.4 hPa | 0 mm | - | - | - |
| 1777581600 | 11.11° C | 47% | 1016.5 hPa | 0 mm | - | - | - |
| 1777581039 | 11.11° C | 47% | 1016.6 hPa | 0 mm | - | - | - |
| 1777580401 | 11.11° C | 47% | 1016.7 hPa | 0 mm | - | - | - |
| 1777579804 | 11.11° C | 48% | 1016.8 hPa | 0 mm | - | - | - |
| 1777579200 | 11.67° C | 48% | 1016.7 hPa | 0 mm | - | - | - |
| 1777578625 | 11.67° C | 46% | 1016.7 hPa | 0 mm | - | - | - |
| 1777578004 | 11.11° C | 48% | 1016.7 hPa | 0 mm | - | - | - |
| 1777577419 | 11.11° C | 45% | 1016.9 hPa | 0 mm | - | - | - |
| 1777576811 | 11.67° C | 46% | 1016.7 hPa | 0 mm | - | - | - |
| 1777576199 | 11.11° C | 50% | 1016.6 hPa | 0 mm | - | - | - |
| 1777575621 | 11.11° C | 46% | 1016.7 hPa | 0 mm | - | - | - |
| 1777574998 | 10.56° C | 47% | 1016.7 hPa | 0 mm | - | - | - |
| 1777574416 | 11.11° C | 46% | 1016.7 hPa | 0 mm | - | - | - |
| 1777573840 | 11.11° C | 45% | 1016.7 hPa | 0 mm | - | - | - |
| 1777573204 | 11.11° C | 47% | 1016.8 hPa | 0 mm | - | - | - |
| 1777572611 | 11.11° C | 47% | 1016.7 hPa | 0 mm | - | - | - |
| 1777572013 | 10.56° C | 45% | 1016.8 hPa | 0 mm | - | - | - |
| 1777571401 | 10.56° C | 49% | 1016.8 hPa | 0 mm | - | - | - |
* Rain latest hour (hover to see other rain measurements)
** Current wind speed in m/s (hover to see current wind gust speed)